Tracking 28766 objects as of 14-Apr-2024
HD Live streaming from Space Station
objects crossing your sky now

STARLINK-2164

Track STARLINK-2164 now!
10-day predictions
STARLINK-2164 is classified as:


NORAD ID: 47750
Int'l Code: 2021-017AE
Perigee: 553.4 km
Apogee: 555.3 km
Inclination: 53.1 °
Period: 95.6 minutes
Semi major axis: 6925 km
RCS: Unknown
Launch date: March 4, 2021
Source: United States (US)
Launch site: AIR FORCE EASTERN TEST RANGE (AFETR)
Your satellite tracking list
Your tracking list is empty




NASA's NSSDC Master Catalog

Two Line Element Set (TLE):
1 47750U 21017AE  24104.33822475  .00002413  00000-0  18083-3 0  9992
2 47750  53.0542  83.1692 0001335  85.5674 274.5468 15.06398927173063
Source of the keplerian elements: AFSPC